COSMOS 2251 DEB

Satellite information

Favourite Embed

Satellite Type and Status

DEBRISIN ORBIT

Key statistics

Satellite COSMOS 2251 DEB at a glance.

Uptime

11819

Days in orbit

Revolutions

≈ 14.5

Per day

Orbit

LEO

Low Earth Orbit

Inclination

74.0

Latest

Satellite identification and parameters

Extended collection of information and parameters for COSMOS 2251 DEB.

Object identification

Identified? True

Debris? True

Object name: COSMOS 2251 DEB

International designator: 1993-036BXY

Object number (NORAD): 47068

Object ID (CCSDS): 47068

Country: COMMONWEALTH OF INDEPENDENT STATES (CIS)

Current information (Y/N): Y

RCS size: SMALL

Orbital parameters

Period: 99.138 minutes

Inclination: 74.0242 deg

SMA: 7095.548 km

Apoapsis: 729.539 km

Periapsis: 705.287 km

RAAN: 302.467 deg

Eccentricy: 0.00170898

Argument of periapsis: 35.8758 deg

Mean anomaly: 324.3547 deg

Mean motion: 14.52525803 rev/day

Mean motion (dot): 0.00005913 rev/day2

B* drag term: 0.0014502125 1/REarth

Two-line elements (TLE)

Creation date: Oct. 21, 2025, 6:24 p.m.

Reference frame: TEME

Reference center: EARTH

Epoch: Oct. 21, 2025, 7:10 a.m. UTC

TLE line 0: 0 COSMOS 2251 DEB

TLE line 1: 1 47068U 93036BXY 25294.29864852 .00005913 00000-0 14502-2 0 9994

TLE line 2: 2 47068 74.0242 302.4670 0017090 35.8758 324.3547 14.52525803609953

Live tracking on map

Real-time ground track for satellite COSMOS 2251 DEB.

In-orbit conjunctions

A list of the most updated potential collisions computed for object COSMOS 2251 DEB.

Target Orbit TCA Probability of collision Miss distance Type
DELTA 1 R/B SSO 2025-05-19 20:51:37 0.0004698752 54.0 (m) ROCKET BODY
DELTA 1 R/B SSO 2025-05-19 19:12:18 0.0002029917 455.0 (m) ROCKET BODY
COSMOS 2251 DEB LEO 2025-05-05 09:48:58 0.0005028429 94.0 (m) DEBRIS

Associated space launch

Military communications satellite. Destroyed in a collision with Iridium 33.

COSMOS 2251 DEB was lifted into orbit during the mission ‘Kosmos-3M | Strela-2M 51’, on board a Kosmos-3M space rocket.

The launch took place on June 16, 1993, 4:17 a.m. from 132/1 (132L).

For more information about the launch, click the button.

Launch to space Kosmos-3M | Strela-2M 51
Kosmos-3M | Strela-2M 51

Agency: N/A

Status: Launch Successful

Launch date: June 16, 1993, 4:17 a.m. UTC

Rocket: Kosmos-3M

Launch pad: 132/1 (132L)

Location: Plesetsk Cosmodrome, Russian Federation

...

Latest news about this satellite

There are no fresh news available about this satellite. Check back as we update our databases every day.


Newsletter sign-up

Weekly statistics, charts and insights to help you stay on top of the space industry.